Weather History for Sarasota, FL

Change the Weather History Date:

Thursday, December 27, 2012

  Actual Average Record
Temperature  
Mean Temperature 53 °F 62 °F  
Max Temperature 63 °F 72 °F 86 °F (1988)
Min Temperature 43 °F 52 °F 24 °F (1983)
Degree Days  
Heating Degree Days 12 5  
Month to date heating degree days 50 100  
Since 1 July heating degree days 91 133  
Cooling Degree Days 0 2  
Month to date cooling degree days 92 68  
Year to date cooling degree days 3816 3368  
Growing Degree Days 4 (Base 50)    
Moisture  
Dew Point 45 °F    
Average Humidity 74    
Maximum Humidity 93    
Minimum Humidity 46    
Precipitation  
Precipitation 0.00 in 0.09 in 2.90 in (1997)
Month to date precipitation 1.44 2.27  
Year to date precipitation 45.48 52.75  
Sea Level Pressure  
Sea Level Pressure 30.05 in    
Wind  
Wind Speed 5 mph (North)    
Max Wind Speed 13 mph    
Max Gust Speed 18 mph    
Visibility 10 miles    
Events      
T = Trace of Precipitation, MM = Missing Value Source: NWS Daily Summary

Daily Weather History Graph

Daily Weather History Graph

Search for Another Location

Airport:

Trip Planner

Search our weather history database for the weather conditions in past years. The results will help you decide how hot, cold, wet, or windy it might be!

Date:

Astronomy

Dec. 27, 2012 Rise Set
Actual Time 7:18 AM EST 5:44 PM EST
Civil Twilight 6:53 AM EST 6:09 PM EST
Nautical Twilight 6:24 AM EST 6:39 PM EST
Astronomical Twilight 5:55 AM EST 7:07 PM EST
Moon 5:23 PM EST (12/27) 6:31 AM EST (12/27)
Length of Visible Light 11h 16m
Length of Day
10h 25m
Full, 100% of the Moon is Illuminated
Dec 27
Full
Dec 28
Full
Jan 4
Last Quarter
Jan 11
New
Jan 18
First Quarter

Hourly Weather History & Observations

Time (EST) Temp. Windchill Dew Point Humidity Pressure Visibility Wind Dir Wind Speed Gust Speed Precip Events Conditions
12:53 AM 54.0 °F - 46.9 °F 77% 30.01 in 10.0 mi NNW 5.8 mph - N/A   Clear
1:53 AM 54.0 °F - 46.9 °F 77% 30.02 in 10.0 mi NNW 6.9 mph - N/A   Clear
2:53 AM 53.1 °F - 46.0 °F 77% 30.02 in 10.0 mi North 6.9 mph - N/A   Clear
3:53 AM 52.0 °F - 45.0 °F 77% 30.02 in 10.0 mi NNE 3.5 mph - N/A   Clear
4:53 AM 50.0 °F - 44.1 °F 80% 30.03 in 10.0 mi Calm Calm - N/A   Clear
5:53 AM 46.9 °F - 42.1 °F 83% 30.05 in 10.0 mi North 3.5 mph - N/A   Clear
6:53 AM 48.0 °F - 43.0 °F 83% 30.06 in 10.0 mi Calm Calm - N/A   Clear
7:53 AM 46.9 °F - 44.1 °F 90% 30.08 in 10.0 mi East 5.8 mph - N/A   Clear
8:53 AM 51.1 °F - 46.0 °F 83% 30.09 in 10.0 mi NE 4.6 mph - N/A   Clear
9:53 AM 55.0 °F - 46.9 °F 74% 30.10 in 10.0 mi NNE 5.8 mph - N/A   Clear
10:53 AM 57.9 °F - 46.9 °F 67% 30.10 in 10.0 mi North 6.9 mph - N/A   Clear
11:53 AM 61.0 °F - 45.0 °F 56% 30.08 in 10.0 mi North 6.9 mph - N/A   Clear
12:53 PM 61.0 °F - 42.1 °F 50% 30.06 in 10.0 mi WNW 8.1 mph - N/A   Clear
1:53 PM 62.1 °F - 41.0 °F 46% 30.04 in 10.0 mi NW 8.1 mph - N/A   Clear
2:53 PM 61.0 °F - 46.0 °F 58% 30.03 in 10.0 mi WNW 11.5 mph - N/A   Clear
3:53 PM 61.0 °F - 46.0 °F 58% 30.03 in 10.0 mi NNW 8.1 mph - N/A   Clear
4:53 PM 57.9 °F - 45.0 °F 62% 30.02 in 10.0 mi NNW 8.1 mph - N/A   Clear
5:53 PM 55.0 °F - 46.9 °F 74% 30.02 in 10.0 mi Calm Calm - N/A   Clear
6:53 PM 53.1 °F - 45.0 °F 74% 30.05 in 10.0 mi NNE 3.5 mph - N/A   Clear
7:53 PM 51.1 °F - 45.0 °F 80% 30.06 in 10.0 mi NNE 3.5 mph - N/A   Clear
8:53 PM 50.0 °F - 45.0 °F 83% 30.07 in 10.0 mi NNE 3.5 mph - N/A   Clear
9:53 PM 48.9 °F - 46.0 °F 90% 30.09 in 10.0 mi NNE 3.5 mph - N/A   Clear
10:53 PM 46.0 °F 44.8 °F 44.1 °F 93% 30.09 in 10.0 mi NE 3.5 mph - N/A   Clear
11:53 PM 46.9 °F - 45.0 °F 93% 30.09 in 9.0 mi NE 3.5 mph - N/A   Clear